Time,TemperatureF,DewpointF,PressureIn,WindDirection,WindDirectionDegrees,WindSpeedMPH,WindSpeedGustMPH,Humidity,HourlyPrecipIn,Conditions,Clouds,dailyrainin,SoftwareType,DateUTC
2013-04-02 00:03:00,41.0,-99.9,29.76,NNW,342,6.0,-999.0,-999,-99.99,,,-99.99,,2013-04-02 04:03:00,
2013-04-02 00:13:00,41.0,-99.9,29.76,NNW,342,6.0,-999.0,-999,-99.99,,,-99.99,,2013-04-02 04:13:00,
2013-04-02 00:23:00,41.0,-99.9,29.77,North,10,10.0,-999.0,-999,-99.99,,,-99.99,,2013-04-02 04:23:00,
2013-04-02 00:33:00,41.0,-99.9,29.77,North,10,10.0,-999.0,-999,-99.99,,,-99.99,,2013-04-02 04:33:00,
2013-04-02 00:43:00,41.0,-99.9,29.77,North,10,10.0,-999.0,-999,-99.99,,,-99.99,,2013-04-02 04:43:00,
2013-04-02 00:53:00,40.0,-99.9,29.78,NNW,344,11.0,-999.0,-999,-99.99,,,-99.99,,2013-04-02 04:53:00,
2013-04-02 01:02:00,40.0,-99.9,29.78,NNW,344,11.0,-999.0,-999,-99.99,,,-99.99,,2013-04-02 05:02:00,
2013-04-02 01:12:00,40.0,-99.9,29.78,NNW,344,11.0,-999.0,-999,-99.99,,,-99.99,,2013-04-02 05:12:00,
2013-04-02 01:23:00,39.0,-99.9,29.79,NNW,334,14.0,-999.0,-999,-99.99,,,-99.99,,2013-04-02 05:23:00,
2013-04-02 01:33:00,39.0,-99.9,29.79,NNW,334,14.0,-999.0,-999,-99.99,,,-99.99,,2013-04-02 05:33:00,
2013-04-02 01:43:00,39.0,-99.9,29.79,NNW,334,14.0,-999.0,-999,-99.99,,,-99.99,,2013-04-02 05:43:00,
2013-04-02 01:52:00,38.0,-99.9,29.80,NNW,338,13.0,-999.0,-999,-99.99,,,-99.99,,2013-04-02 05:52:00,
2013-04-02 02:03:00,38.0,-99.9,29.80,NNW,338,13.0,-999.0,-999,-99.99,,,-99.99,,2013-04-02 06:03:00,
2013-04-02 02:12:00,38.0,-99.9,29.80,NNW,338,13.0,-999.0,-999,-99.99,,,-99.99,,2013-04-02 06:12:00,
2013-04-02 02:22:00,38.0,-99.9,29.80,NNW,337,15.0,-999.0,-999,-99.99,,,-99.99,,2013-04-02 06:22:00,
2013-04-02 02:32:00,38.0,-99.9,29.80,NNW,337,15.0,-999.0,-999,-99.99,,,-99.99,,2013-04-02 06:32:00,
2013-04-02 02:42:00,38.0,-99.9,29.80,NNW,337,15.0,-999.0,-999,-99.99,,,-99.99,,2013-04-02 06:42:00,
2013-04-02 02:52:00,38.0,-99.9,29.80,NNW,337,14.0,-999.0,-999,-99.99,,,-99.99,,2013-04-02 06:52:00,
2013-04-02 03:02:00,38.0,-99.9,29.80,NNW,337,14.0,-999.0,-999,-99.99,,,-99.99,,2013-04-02 07:02:00,
2013-04-02 03:13:00,38.0,-99.9,29.80,NNW,337,14.0,-999.0,-999,-99.99,,,-99.99,,2013-04-02 07:13:00,
2013-04-02 03:22:00,37.0,-99.9,29.81,NNE,12,10.0,-999.0,-999,-99.99,,,-99.99,,2013-04-02 07:22:00,
2013-04-02 03:32:00,37.0,-99.9,29.81,NNE,12,10.0,-999.0,-999,-99.99,,,-99.99,,2013-04-02 07:32:00,
2013-04-02 03:43:00,37.0,-99.9,29.81,NNE,12,10.0,-999.0,-999,-99.99,,,-99.99,,2013-04-02 07:43:00,
2013-04-02 03:53:00,36.0,-99.9,29.82,NNW,344,8.0,-999.0,-999,-99.99,,,-99.99,,2013-04-02 07:53:00,
2013-04-02 04:02:00,36.0,-99.9,29.82,NNW,344,8.0,-999.0,-999,-99.99,,,-99.99,,2013-04-02 08:02:00,
2013-04-02 04:14:00,36.0,-99.9,29.82,NNW,344,8.0,-999.0,-999,-99.99,,,-99.99,,2013-04-02 08:14:00,
2013-04-02 04:23:00,36.0,-99.9,29.82,NNW,333,9.0,-999.0,-999,-99.99,,,-99.99,,2013-04-02 08:23:00,
2013-04-02 04:32:00,36.0,-99.9,29.82,NNW,333,9.0,-999.0,-999,-99.99,,,-99.99,,2013-04-02 08:32:00,
2013-04-02 04:43:00,36.0,-99.9,29.83,NNW,337,7.0,-999.0,-999,-99.99,,,-99.99,,2013-04-02 08:43:00,
2013-04-02 04:53:00,36.0,-99.9,29.83,NNW,337,7.0,-999.0,-999,-99.99,,,-99.99,,2013-04-02 08:53:00,
2013-04-02 05:02:00,36.0,-99.9,29.83,NNW,337,7.0,-999.0,-999,-99.99,,,-99.99,,2013-04-02 09:02:00,
2013-04-02 05:13:00,36.0,-99.9,29.83,NNW,337,7.0,-999.0,-999,-99.99,,,-99.99,,2013-04-02 09:13:00,
2013-04-02 05:22:00,36.0,-99.9,29.83,NNW,338,16.0,-999.0,-999,-99.99,,,-99.99,,2013-04-02 09:22:00,
2013-04-02 05:33:00,36.0,-99.9,29.83,NNW,338,16.0,-999.0,-999,-99.99,,,-99.99,,2013-04-02 09:33:00,
2013-04-02 05:43:00,36.0,-99.9,29.83,NNW,338,16.0,-999.0,-999,-99.99,,,-99.99,,2013-04-02 09:43:00,
2013-04-02 05:53:00,35.0,-99.9,29.84,NNW,329,8.0,-999.0,-999,-99.99,,,-99.99,,2013-04-02 09:53:00,
2013-04-02 06:03:00,35.0,-99.9,29.84,NNW,329,8.0,-999.0,-999,-99.99,,,-99.99,,2013-04-02 10:03:00,
2013-04-02 06:13:00,35.0,-99.9,29.84,NNW,329,8.0,-999.0,-999,-99.99,,,-99.99,,2013-04-02 10:13:00,
2013-04-02 06:24:00,35.0,-99.9,29.85,NW,305,6.0,-999.0,-999,-99.99,,,-99.99,,2013-04-02 10:24:00,
2013-04-02 06:33:00,35.0,-99.9,29.85,NW,305,6.0,-999.0,-999,-99.99,,,-99.99,,2013-04-02 10:33:00,
2013-04-02 06:43:00,34.0,-99.9,29.86,NW,312,8.0,-999.0,-999,-99.99,,,-99.99,,2013-04-02 10:43:00,
2013-04-02 06:53:00,34.0,-99.9,29.86,NW,312,8.0,-999.0,-999,-99.99,,,-99.99,,2013-04-02 10:53:00,
2013-04-02 07:03:00,34.0,-99.9,29.86,NW,312,8.0,-999.0,-999,-99.99,,,-99.99,,2013-04-02 11:03:00,
2013-04-02 07:12:00,34.0,-99.9,29.86,NW,312,8.0,-999.0,-999,-99.99,,,-99.99,,2013-04-02 11:12:00,
2013-04-02 07:23:00,34.0,-99.9,29.87,NW,306,8.0,-999.0,-999,-99.99,,,-99.99,,2013-04-02 11:23:00,
2013-04-02 07:33:00,34.0,-99.9,29.87,NW,306,8.0,-999.0,-999,-99.99,,,-99.99,,2013-04-02 11:33:00,
2013-04-02 07:43:00,34.0,-99.9,29.87,NW,306,8.0,-999.0,-999,-99.99,,,-99.99,,2013-04-02 11:43:00,
2013-04-02 07:53:00,35.0,-99.9,29.88,WNW,283,9.0,-999.0,-999,-99.99,,,-99.99,,2013-04-02 11:53:00,
2013-04-02 08:02:00,35.0,-99.9,29.88,WNW,283,9.0,-999.0,-999,-99.99,,,-99.99,,2013-04-02 12:02:00,
2013-04-02 08:12:00,35.0,-99.9,29.88,WNW,283,9.0,-999.0,-999,-99.99,,,-99.99,,2013-04-02 12:12:00,
2013-04-02 08:23:00,36.0,-99.9,29.88,WNW,294,8.0,-999.0,-999,-99.99,,,-99.99,,2013-04-02 12:23:00,
2013-04-02 08:32:00,36.0,-99.9,29.88,WNW,294,8.0,-999.0,-999,-99.99,,,-99.99,,2013-04-02 12:32:00,
2013-04-02 08:43:00,36.0,-99.9,29.88,WNW,294,8.0,-999.0,-999,-99.99,,,-99.99,,2013-04-02 12:43:00,
2013-04-02 08:53:00,36.0,-99.9,29.88,NW,310,8.0,-999.0,-999,-99.99,,,-99.99,,2013-04-02 12:53:00,
2013-04-02 09:02:00,36.0,-99.9,29.88,NW,310,8.0,-999.0,-999,-99.99,,,-99.99,,2013-04-02 13:02:00,
2013-04-02 09:12:00,36.0,-99.9,29.88,NW,310,8.0,-999.0,-999,-99.99,,,-99.99,,2013-04-02 13:12:00,
2013-04-02 09:23:00,36.0,-99.9,29.88,West,268,7.0,-999.0,-999,-99.99,,,-99.99,,2013-04-02 13:23:00,
2013-04-02 09:33:00,36.0,-99.9,29.88,West,268,7.0,-999.0,-999,-99.99,,,-99.99,,2013-04-02 13:33:00,
2013-04-02 09:42:00,36.0,-99.9,29.88,West,268,7.0,-999.0,-999,-99.99,,,-99.99,,2013-04-02 13:42:00,
2013-04-02 09:53:00,37.0,-99.9,29.88,NNW,334,13.0,-999.0,-999,-99.99,,,-99.99,,2013-04-02 13:53:00,
2013-04-02 10:02:00,37.0,-99.9,29.88,NNW,334,13.0,-999.0,-999,-99.99,,,-99.99,,2013-04-02 14:02:00,
2013-04-02 10:13:00,37.0,-99.9,29.88,NNW,334,13.0,-999.0,-999,-99.99,,,-99.99,,2013-04-02 14:13:00,
2013-04-02 10:23:00,37.0,-99.9,29.87,NNW,330,16.0,-999.0,-999,-99.99,,,-99.99,,2013-04-02 14:23:00,
2013-04-02 10:33:00,37.0,-99.9,29.87,NNW,330,16.0,-999.0,-999,-99.99,,,-99.99,,2013-04-02 14:33:00,
2013-04-02 10:43:00,37.0,-99.9,29.87,NNW,330,16.0,-999.0,-999,-99.99,,,-99.99,,2013-04-02 14:43:00,
2013-04-02 10:52:00,38.0,-99.9,29.87,NNW,331,13.0,-999.0,-999,-99.99,,,-99.99,,2013-04-02 14:52:00,
2013-04-02 11:02:00,38.0,-99.9,29.87,NNW,331,13.0,-999.0,-999,-99.99,,,-99.99,,2013-04-02 15:02:00,
2013-04-02 11:12:00,38.0,-99.9,29.87,NNW,331,13.0,-999.0,-999,-99.99,,,-99.99,,2013-04-02 15:12:00,
2013-04-02 11:23:00,38.0,-99.9,29.87,NW,326,16.0,-999.0,-999,-99.99,,,-99.99,,2013-04-02 15:23:00,
2013-04-02 11:33:00,38.0,-99.9,29.87,NW,326,16.0,-999.0,-999,-99.99,,,-99.99,,2013-04-02 15:33:00,
2013-04-02 11:43:00,38.0,-99.9,29.87,NW,326,16.0,-999.0,-999,-99.99,,,-99.99,,2013-04-02 15:43:00,
2013-04-02 11:58:00,39.0,-99.9,29.86,NNW,347,14.0,-999.0,-999,-99.99,,,-99.99,,2013-04-02 15:58:00,
2013-04-02 12:04:00,39.0,-99.9,29.86,NNW,347,14.0,-999.0,-999,-99.99,,,-99.99,,2013-04-02 16:04:00,
2013-04-02 12:14:00,39.0,-99.9,29.86,NNW,347,14.0,-999.0,-999,-99.99,,,-99.99,,2013-04-02 16:14:00,
2013-04-02 12:25:00,40.0,-99.9,29.85,WNW,302,16.0,-999.0,-999,-99.99,,,-99.99,,2013-04-02 16:25:00,
2013-04-02 12:39:00,40.0,-99.9,29.85,WNW,302,16.0,-999.0,-999,-99.99,,,-99.99,,2013-04-02 16:39:00,
2013-04-02 12:54:00,40.0,-99.9,29.85,NW,317,10.0,-999.0,-999,-99.99,,,-99.99,,2013-04-02 16:54:00,
2013-04-02 13:06:00,40.0,-99.9,29.85,NW,317,10.0,-999.0,-999,-99.99,,,-99.99,,2013-04-02 17:06:00,
2013-04-02 13:14:00,40.0,-99.9,29.85,NW,317,10.0,-999.0,-999,-99.99,,,-99.99,,2013-04-02 17:14:00,
2013-04-02 13:25:00,40.0,-99.9,29.84,NW,322,19.0,-999.0,-999,-99.99,,,-99.99,,2013-04-02 17:25:00,
2013-04-02 13:35:00,40.0,-99.9,29.84,NW,322,19.0,-999.0,-999,-99.99,,,-99.99,,2013-04-02 17:35:00,
2013-04-02 13:44:00,40.0,-99.9,29.83,West,280,14.0,-999.0,-999,-99.99,,,-99.99,,2013-04-02 17:44:00,
2013-04-02 13:57:00,40.0,-99.9,29.83,West,280,14.0,-999.0,-999,-99.99,,,-99.99,,2013-04-02 17:57:00,
2013-04-02 14:05:00,40.0,-99.9,29.83,West,280,14.0,-999.0,-999,-99.99,,,-99.99,,2013-04-02 18:05:00,
2013-04-02 14:13:00,40.0,-99.9,29.83,West,280,14.0,-999.0,-999,-99.99,,,-99.99,,2013-04-02 18:13:00,
2013-04-02 14:23:00,41.0,-99.9,29.82,NW,308,16.0,-999.0,-999,-99.99,,,-99.99,,2013-04-02 18:23:00,
2013-04-02 14:35:00,41.0,-99.9,29.82,NW,308,16.0,-999.0,-999,-99.99,,,-99.99,,2013-04-02 18:35:00,
2013-04-02 14:43:00,41.0,-99.9,29.82,NW,308,16.0,-999.0,-999,-99.99,,,-99.99,,2013-04-02 18:43:00,
2013-04-02 14:57:00,42.0,-99.9,29.81,WNW,292,11.0,-999.0,-999,-99.99,,,-99.99,,2013-04-02 18:57:00,
2013-04-02 15:03:00,42.0,-99.9,29.81,WNW,292,11.0,-999.0,-999,-99.99,,,-99.99,,2013-04-02 19:03:00,
2013-04-02 15:13:00,42.0,-99.9,29.81,WNW,292,11.0,-999.0,-999,-99.99,,,-99.99,,2013-04-02 19:13:00,
2013-04-02 15:23:00,43.0,-99.9,29.80,NNW,342,20.0,-999.0,-999,-99.99,,,-99.99,,2013-04-02 19:23:00,
2013-04-02 15:34:00,43.0,-99.9,29.80,NNW,342,20.0,-999.0,-999,-99.99,,,-99.99,,2013-04-02 19:34:00,
2013-04-02 15:47:00,43.0,-99.9,29.80,NNW,342,20.0,-999.0,-999,-99.99,,,-99.99,,2013-04-02 19:47:00,
2013-04-02 15:57:00,43.0,-99.9,29.80,NNW,329,20.0,-999.0,-999,-99.99,,,-99.99,,2013-04-02 19:57:00,
2013-04-02 16:04:00,43.0,-99.9,29.80,NNW,329,20.0,-999.0,-999,-99.99,,,-99.99,,2013-04-02 20:04:00,
2013-04-02 16:14:00,43.0,-99.9,29.80,NNW,329,20.0,-999.0,-999,-99.99,,,-99.99,,2013-04-02 20:14:00,
2013-04-02 16:23:00,43.0,-99.9,29.80,WNW,296,15.0,-999.0,-999,-99.99,,,-99.99,,2013-04-02 20:23:00,
2013-04-02 16:34:00,43.0,-99.9,29.80,WNW,296,15.0,-999.0,-999,-99.99,,,-99.99,,2013-04-02 20:34:00,
2013-04-02 16:44:00,43.0,-99.9,29.81,NW,319,11.0,-999.0,-999,-99.99,,,-99.99,,2013-04-02 20:44:00,
2013-04-02 16:55:00,43.0,-99.9,29.81,NW,319,11.0,-999.0,-999,-99.99,,,-99.99,,2013-04-02 20:55:00,
2013-04-02 17:05:00,43.0,-99.9,29.81,NW,319,11.0,-999.0,-999,-99.99,,,-99.99,,2013-04-02 21:05:00,
2013-04-02 17:13:00,43.0,-99.9,29.81,NW,319,11.0,-999.0,-999,-99.99,,,-99.99,,2013-04-02 21:13:00,
2013-04-02 17:23:00,43.0,-99.9,29.82,NNW,335,14.0,-999.0,-999,-99.99,,,-99.99,,2013-04-02 21:23:00,
2013-04-02 17:35:00,43.0,-99.9,29.82,NNW,335,14.0,-999.0,-999,-99.99,,,-99.99,,2013-04-02 21:35:00,
2013-04-02 17:44:00,43.0,-99.9,29.82,NNW,335,14.0,-999.0,-999,-99.99,,,-99.99,,2013-04-02 21:44:00,
2013-04-02 17:57:00,43.0,-99.9,29.83,NNW,327,22.0,-999.0,-999,-99.99,,,-99.99,,2013-04-02 21:57:00,
2013-04-02 18:05:00,43.0,-99.9,29.83,NNW,327,22.0,-999.0,-999,-99.99,,,-99.99,,2013-04-02 22:05:00,
2013-04-02 18:14:00,43.0,-99.9,29.83,NNW,327,22.0,-999.0,-999,-99.99,,,-99.99,,2013-04-02 22:14:00,
2013-04-02 18:25:00,42.0,-99.9,29.84,NNW,330,19.0,-999.0,-999,-99.99,,,-99.99,,2013-04-02 22:25:00,
2013-04-02 18:44:00,42.0,-99.9,29.85,NNW,337,16.0,-999.0,-999,-99.99,,,-99.99,,2013-04-02 22:44:00,
2013-04-02 18:54:00,42.0,-99.9,29.85,NNW,337,16.0,-999.0,-999,-99.99,,,-99.99,,2013-04-02 22:54:00,
2013-04-02 19:03:00,42.0,-99.9,29.85,NNW,337,16.0,-999.0,-999,-99.99,,,-99.99,,2013-04-02 23:03:00,
2013-04-02 19:13:00,42.0,-99.9,29.85,NNW,337,16.0,-999.0,-999,-99.99,,,-99.99,,2013-04-02 23:13:00,
2013-04-02 19:24:00,41.0,-99.9,29.87,NW,321,21.0,-999.0,-999,-99.99,,,-99.99,,2013-04-02 23:24:00,
2013-04-02 19:37:00,41.0,-99.9,29.87,NW,321,21.0,-999.0,-999,-99.99,,,-99.99,,2013-04-02 23:37:00,
2013-04-02 19:43:00,41.0,-99.9,29.87,NW,321,21.0,-999.0,-999,-99.99,,,-99.99,,2013-04-02 23:43:00,
2013-04-02 19:55:00,41.0,-99.9,29.88,NW,325,13.0,-999.0,-999,-99.99,,,-99.99,,2013-04-02 23:55:00,
2013-04-02 20:05:00,41.0,-99.9,29.88,NW,325,13.0,-999.0,-999,-99.99,,,-99.99,,2013-04-03 00:05:00,
2013-04-02 20:13:00,41.0,-99.9,29.88,NW,325,13.0,-999.0,-999,-99.99,,,-99.99,,2013-04-03 00:13:00,
2013-04-02 20:26:00,40.0,-99.9,29.90,NNW,331,10.0,-999.0,-999,-99.99,,,-99.99,,2013-04-03 00:26:00,
2013-04-02 20:34:00,40.0,-99.9,29.90,NNW,331,10.0,-999.0,-999,-99.99,,,-99.99,,2013-04-03 00:34:00,
2013-04-02 20:48:00,40.0,-99.9,29.90,NNW,331,10.0,-999.0,-999,-99.99,,,-99.99,,2013-04-03 00:48:00,
2013-04-02 20:57:00,40.0,-99.9,29.91,NNW,337,8.0,-999.0,-999,-99.99,,,-99.99,,2013-04-03 00:57:00,
2013-04-02 21:04:00,40.0,-99.9,29.91,NNW,337,8.0,-999.0,-999,-99.99,,,-99.99,,2013-04-03 01:04:00,
2013-04-02 21:13:00,40.0,-99.9,29.91,NNW,337,8.0,-999.0,-999,-99.99,,,-99.99,,2013-04-03 01:13:00,
2013-04-02 21:23:00,39.0,-99.9,29.93,NNW,340,7.0,-999.0,-999,-99.99,,,-99.99,,2013-04-03 01:23:00,
2013-04-02 21:34:00,39.0,-99.9,29.93,NNW,340,7.0,-999.0,-999,-99.99,,,-99.99,,2013-04-03 01:34:00,
2013-04-02 21:43:00,39.0,-99.9,29.93,NNW,340,7.0,-999.0,-999,-99.99,,,-99.99,,2013-04-03 01:43:00,
2013-04-02 21:54:00,39.0,-99.9,29.94,NNW,342,11.0,-999.0,-999,-99.99,,,-99.99,,2013-04-03 01:54:00,
2013-04-02 22:04:00,39.0,-99.9,29.94,NNW,342,11.0,-999.0,-999,-99.99,,,-99.99,,2013-04-03 02:04:00,
2013-04-02 22:14:00,39.0,-99.9,29.94,NNW,342,11.0,-999.0,-999,-99.99,,,-99.99,,2013-04-03 02:14:00,
2013-04-02 22:25:00,38.0,-99.9,29.94,NNW,338,13.0,-999.0,-999,-99.99,,,-99.99,,2013-04-03 02:25:00,
2013-04-02 22:34:00,38.0,-99.9,29.94,NNW,338,13.0,-999.0,-999,-99.99,,,-99.99,,2013-04-03 02:34:00,
2013-04-02 22:45:00,38.0,-99.9,29.94,NNW,338,13.0,-999.0,-999,-99.99,,,-99.99,,2013-04-03 02:45:00,
2013-04-02 22:53:00,38.0,-99.9,29.94,NNW,331,7.0,-999.0,-999,-99.99,,,-99.99,,2013-04-03 02:53:00,
2013-04-02 23:07:00,38.0,-99.9,29.94,NNW,331,7.0,-999.0,-999,-99.99,,,-99.99,,2013-04-03 03:07:00,
2013-04-02 23:14:00,38.0,-99.9,29.94,NNW,331,7.0,-999.0,-999,-99.99,,,-99.99,,2013-04-03 03:14:00,
2013-04-02 23:23:00,38.0,-99.9,29.94,NW,321,10.0,-999.0,-999,-99.99,,,-99.99,,2013-04-03 03:23:00,
2013-04-02 23:38:00,38.0,-99.9,29.94,NW,321,10.0,-999.0,-999,-99.99,,,-99.99,,2013-04-03 03:38:00,
2013-04-02 23:44:00,38.0,-99.9,29.94,NW,321,10.0,-999.0,-999,-99.99,,,-99.99,,2013-04-03 03:44:00,
2013-04-02 23:54:00,38.0,-99.9,29.94,NW,325,11.0,-999.0,-999,-99.99,,,-99.99,,2013-04-03 03:54:00,